User: anonymous   Login
Location: Bad Rothenbrunn
(47.2167°N, 11.2167°E)
Time: 06:19:38
(UTC+00:00)
Language:

MOS 1 - Orbit

View from above orbital plane
View from above orbital plane
View from above satellite
View from above satellite

Ground track
Ground track

The orbit data is extracted from the following two-line orbital elements,

1 17527U 87018A   21134.65928344  .00000323  00000-0  23863-3 0  9991
2 17527  99.1080 184.1828 0007813 318.2584 150.9900 14.02584655749557
Epoch (UTC): 14 May 2021 15:49:22
Eccentricity: 0.0007813
inclination: 99.1080°
perigee height: 879 km
apogee height: 890 km
right ascension of ascending node: 184.1828°
argument of perigee: 318.2584°
revolutions per day: 14.02584655
mean anomaly at epoch: 150.9900°
orbit number at epoch: 74955

The dashed part of the orbit path shows where the satellite is in the earth's shadow,  

DLR